VOZ1323 YMHB-YMML

Flight info

Callsign VOZ1323
Flight time 0h 54m
Altitude 34000
Route TASUM H111 LT H215 RAZZI W687 ML
Aircraft B737/M-SDE2E3FGHIRWXY/LB1

Departure

Time 2026-04-20 00:18
Airport Hobart International Airport (YMHB)

Arrival

Time 2026-04-20 01:13
Airport Melbourne Airport (YMML)
Time Latitude Longitude Altitude Speed Heading
2026-04-19 23:52 -42.83684 147.50623 21 ft 0 kts 225°
2026-04-20 00:01 -42.83684 147.50622 20 ft 0 kts 228°
2026-04-20 00:05 -42.83679 147.50630 21 ft 4 kts 227°
2026-04-20 00:05 -42.83660 147.50655 21 ft 3 kts 225°
2026-04-20 00:05 -42.83643 147.50673 22 ft 4 kts 185°
2026-04-20 00:06 -42.83626 147.50662 21 ft 4 kts 122°
2026-04-20 00:06 -42.83613 147.50636 21 ft 1 kts 135°
2026-04-20 00:06 -42.83613 147.50635 21 ft 0 kts 135°
2026-04-20 00:12 -42.83613 147.50636 21 ft 1 kts 135°
2026-04-20 00:12 -42.83620 147.50646 21 ft 4 kts 131°
2026-04-20 00:12 -42.83654 147.50698 21 ft 11 kts 137°
2026-04-20 00:13 -42.83727 147.50778 22 ft 15 kts 148°
2026-04-20 00:13 -42.83811 147.50846 22 ft 14 kts 149°
2026-04-20 00:13 -42.83889 147.50945 21 ft 17 kts 136°
2026-04-20 00:13 -42.83935 147.51079 21 ft 16 kts 65°
2026-04-20 00:14 -42.83872 147.51179 21 ft 11 kts 52°
2026-04-20 00:14 -42.83827 147.51245 21 ft 6 kts 46°
2026-04-20 00:14 -42.83821 147.51253 21 ft 0 kts 46°
2026-04-20 00:15 -42.83785 147.51299 22 ft 17 kts 47°
2026-04-20 00:15 -42.83821 147.51455 23 ft 23 kts 134°
2026-04-20 00:15 -42.83939 147.51617 21 ft 24 kts 134°
2026-04-20 00:16 -42.84050 147.51773 23 ft 23 kts 132°
2026-04-20 00:16 -42.84160 147.51923 23 ft 22 kts 134°
2026-04-20 00:16 -42.84269 147.52069 23 ft 23 kts 136°
2026-04-20 00:16 -42.84400 147.52245 23 ft 25 kts 136°
2026-04-20 00:17 -42.84516 147.52318 23 ft 14 kts 163°
2026-04-20 00:17 -42.84570 147.52392 21 ft 10 kts 95°
2026-04-20 00:17 -42.84524 147.52412 23 ft 9 kts 318°
2026-04-20 00:17 -42.84339 147.52151 21 ft 76 kts 315°
2026-04-20 00:18 -42.83794 147.51420 23 ft 141 kts 315°
2026-04-20 00:18 -42.82995 147.50325 208 ft 178 kts 315°
2026-04-20 00:18 -42.82097 147.49100 943 ft 184 kts 315°
2026-04-20 00:18 -42.81235 147.47933 2027 ft 173 kts 315°
2026-04-20 00:19 -42.80332 147.46706 2572 ft 198 kts 315°
2026-04-20 00:19 -42.79283 147.45281 2884 ft 226 kts 315°
2026-04-20 00:19 -42.78149 147.43733 3554 ft 234 kts 315°
2026-04-20 00:19 -42.77003 147.42166 4320 ft 239 kts 315°
2026-04-20 00:20 -42.75821 147.40549 5092 ft 243 kts 315°
2026-04-20 00:20 -42.74612 147.38893 5775 ft 256 kts 314°
2026-04-20 00:20 -42.73319 147.37123 6481 ft 269 kts 314°
2026-04-20 00:20 -42.71985 147.35295 7381 ft 274 kts 314°
2026-04-20 00:21 -42.70632 147.33446 8335 ft 277 kts 314°
2026-04-20 00:21 -42.69262 147.31574 9250 ft 281 kts 314°
2026-04-20 00:21 -42.67874 147.29677 10144 ft 285 kts 314°
2026-04-20 00:21 -42.66439 147.27716 10645 ft 305 kts 313°
2026-04-20 00:22 -42.64899 147.25609 10864 ft 331 kts 313°
2026-04-20 00:22 -42.63211 147.23305 11100 ft 355 kts 313°
2026-04-20 00:22 -42.61419 147.20920 11685 ft 366 kts 318°
2026-04-20 00:22 -42.59192 147.19208 12437 ft 375 kts 341°
2026-04-20 00:23 -42.56598 147.18729 13269 ft 382 kts
2026-04-20 00:23 -42.53994 147.19565 13994 ft 391 kts 24°
2026-04-20 00:23 -42.51649 147.21497 14739 ft 398 kts 31°
2026-04-20 00:23 -42.49146 147.23138 15431 ft 402 kts 17°
2026-04-20 00:24 -42.46482 147.24130 16212 ft 404 kts 10°
2026-04-20 00:24 -42.43690 147.24663 16948 ft 407 kts
2026-04-20 00:24 -42.40854 147.24668 17677 ft 410 kts 356°
2026-04-20 00:24 -42.37989 147.24547 18331 ft 415 kts 355°
2026-04-20 00:25 -42.35093 147.24387 18965 ft 419 kts 355°
2026-04-20 00:25 -42.32161 147.24226 19591 ft 424 kts 355°
2026-04-20 00:25 -42.29194 147.24079 20202 ft 429 kts 355°
2026-04-20 00:25 -42.26188 147.23944 20773 ft 435 kts 356°
2026-04-20 00:26 -42.23152 147.23820 21358 ft 439 kts 356°
2026-04-20 00:26 -42.20120 147.23703 21896 ft 444 kts 356°
2026-04-20 00:26 -42.17023 147.23588 22417 ft 448 kts 356°
2026-04-20 00:26 -42.13891 147.23474 22938 ft 452 kts 356°
2026-04-20 00:27 -42.10728 147.23359 23416 ft 457 kts 356°
2026-04-20 00:27 -42.07536 147.23242 23900 ft 461 kts 356°
2026-04-20 00:27 -42.04318 147.23125 24366 ft 464 kts 356°
2026-04-20 00:27 -42.01073 147.23005 24795 ft 469 kts 356°
2026-04-20 00:28 -41.97798 147.22884 25212 ft 473 kts 356°
2026-04-20 00:28 -41.94489 147.22762 25589 ft 479 kts 356°
2026-04-20 00:28 -41.91186 147.22641 25965 ft 483 kts 356°
2026-04-20 00:28 -41.87820 147.22518 26373 ft 486 kts 356°
2026-04-20 00:29 -41.84429 147.22394 26731 ft 490 kts 356°
2026-04-20 00:29 -41.81011 147.22268 27091 ft 493 kts 356°
2026-04-20 00:29 -41.77565 147.22142 27429 ft 497 kts 356°
2026-04-20 00:29 -41.74098 147.22016 27773 ft 500 kts 356°
2026-04-20 00:30 -41.70605 147.21889 28103 ft 503 kts 356°
2026-04-20 00:30 -41.67099 147.21762 28414 ft 506 kts 356°
2026-04-20 00:30 -41.63562 147.21633 28736 ft 509 kts 356°
2026-04-20 00:30 -41.60014 147.21503 29034 ft 512 kts 356°
2026-04-20 00:31 -41.56491 147.21258 29304 ft 514 kts 351°
2026-04-20 00:31 -41.52983 147.20419 29667 ft 511 kts 342°
2026-04-20 00:31 -41.49636 147.18936 30092 ft 505 kts 334°
2026-04-20 00:31 -41.46394 147.17150 30559 ft 504 kts 333°
2026-04-20 00:32 -41.43164 147.15334 30965 ft 503 kts 333°
2026-04-20 00:32 -41.39935 147.13521 31323 ft 504 kts 333°
2026-04-20 00:32 -41.36699 147.11722 31682 ft 505 kts 333°
2026-04-20 00:32 -41.33497 147.09964 32068 ft 504 kts 333°
2026-04-20 00:33 -41.30258 147.08201 32468 ft 503 kts 333°
2026-04-20 00:33 -41.27015 147.06447 32806 ft 503 kts 333°
2026-04-20 00:33 -41.23769 147.04697 33140 ft 503 kts 334°
2026-04-20 00:33 -41.20520 147.02949 33446 ft 504 kts 334°
2026-04-20 00:34 -41.17272 147.01204 33767 ft 503 kts 333°
2026-04-20 00:34 -41.14028 146.99461 34117 ft 503 kts 333°
2026-04-20 00:34 -41.10782 146.97719 34391 ft 504 kts 333°
2026-04-20 00:35 -41.04236 146.94207 34380 ft 508 kts 334°
2026-04-20 00:35 -40.97758 146.90745 34363 ft 501 kts 334°
2026-04-20 00:36 -40.91315 146.87308 34381 ft 499 kts 334°
2026-04-20 00:36 -40.84876 146.83875 34368 ft 499 kts 334°
2026-04-20 00:37 -40.78437 146.80448 34369 ft 499 kts 334°
2026-04-20 00:37 -40.71989 146.77025 34369 ft 500 kts 334°
2026-04-20 00:38 -40.65573 146.73627 34370 ft 501 kts 334°
2026-04-20 00:38 -40.59099 146.70206 34370 ft 502 kts 334°
2026-04-20 00:39 -40.52613 146.66787 34368 ft 503 kts 334°
2026-04-20 00:39 -40.46113 146.63367 34368 ft 504 kts 334°
2026-04-20 00:40 -40.39641 146.59968 34370 ft 504 kts 334°
2026-04-20 00:40 -40.33119 146.56550 34367 ft 505 kts 334°
2026-04-20 00:41 -40.26592 146.53136 34365 ft 505 kts 334°
2026-04-20 00:41 -40.20059 146.49727 34358 ft 505 kts 334°
2026-04-20 00:42 -40.13530 146.46328 34357 ft 505 kts 334°
2026-04-20 00:42 -40.07044 146.42955 34360 ft 505 kts 334°
2026-04-20 00:43 -40.00513 146.39567 34358 ft 505 kts 334°
2026-04-20 00:43 -39.93982 146.36197 34358 ft 505 kts 334°
2026-04-20 00:44 -39.87445 146.32839 34354 ft 505 kts 334°
2026-04-20 00:44 -39.80910 146.29485 34347 ft 505 kts 334°
2026-04-20 00:45 -39.74417 146.26156 34351 ft 505 kts 334°
2026-04-20 00:45 -39.67873 146.22812 34351 ft 505 kts 335°
2026-04-20 00:46 -39.61323 146.19487 34347 ft 506 kts 335°
2026-04-20 00:46 -39.54764 146.16163 34343 ft 506 kts 335°
2026-04-20 00:47 -39.48251 146.12867 34340 ft 506 kts 335°
2026-04-20 00:47 -39.41695 146.09553 34341 ft 506 kts 335°
2026-04-20 00:48 -39.35139 146.06242 34340 ft 506 kts 335°
2026-04-20 00:48 -39.28586 146.02931 34342 ft 506 kts 335°
2026-04-20 00:49 -39.22029 145.99623 34341 ft 506 kts 335°
2026-04-20 00:49 -39.15513 145.96345 34337 ft 506 kts 335°
2026-04-20 00:50 -39.08944 145.93045 34097 ft 508 kts 335°
2026-04-20 00:50 -39.05660 145.91398 33844 ft 506 kts 335°
2026-04-20 00:50 -39.02383 145.89757 33598 ft 505 kts 335°
2026-04-20 00:50 -38.99108 145.88118 33359 ft 506 kts 335°
2026-04-20 00:51 -38.95825 145.86476 33109 ft 507 kts 335°
2026-04-20 00:51 -38.92540 145.84834 32863 ft 507 kts 335°
2026-04-20 00:51 -38.89251 145.83193 32615 ft 508 kts 335°
2026-04-20 00:51 -38.85956 145.81551 32372 ft 508 kts 335°
2026-04-20 00:52 -38.82708 145.79934 32126 ft 508 kts 335°
2026-04-20 00:52 -38.79416 145.78294 31879 ft 507 kts 335°
2026-04-20 00:52 -38.76119 145.76654 31460 ft 511 kts 336°
2026-04-20 00:52 -38.72799 145.75005 30963 ft 514 kts 336°
2026-04-20 00:53 -38.69463 145.73351 30472 ft 514 kts 336°
2026-04-20 00:53 -38.66123 145.71697 29972 ft 514 kts 336°
2026-04-20 00:53 -38.62791 145.70048 29479 ft 513 kts 336°
2026-04-20 00:53 -38.59467 145.68406 28977 ft 511 kts 336°
2026-04-20 00:54 -38.56157 145.66770 28479 ft 510 kts 336°
2026-04-20 00:54 -38.52901 145.65162 27988 ft 507 kts 336°
2026-04-20 00:54 -38.49643 145.63556 27483 ft 497 kts 336°
2026-04-20 00:54 -38.46458 145.61935 26974 ft 486 kts 333°
2026-04-20 00:55 -38.43476 145.60036 26463 ft 473 kts 329°
2026-04-20 00:55 -38.40619 145.58049 25967 ft 463 kts 328°
2026-04-20 00:55 -38.37832 145.56062 25462 ft 455 kts 327°
2026-04-20 00:55 -38.35090 145.54110 24845 ft 449 kts 328°
2026-04-20 00:56 -38.32398 145.52216 24177 ft 446 kts 328°
2026-04-20 00:56 -38.29689 145.50330 23481 ft 443 kts 328°
2026-04-20 00:56 -38.26986 145.48466 22784 ft 440 kts 328°
2026-04-20 00:56 -38.24324 145.46641 22075 ft 429 kts 328°
2026-04-20 00:57 -38.21733 145.44870 21366 ft 417 kts 328°
2026-04-20 00:57 -38.19204 145.43142 20665 ft 407 kts 328°
2026-04-20 00:57 -38.16743 145.41461 19954 ft 397 kts 328°
2026-04-20 00:57 -38.14330 145.39811 19205 ft 391 kts 328°
2026-04-20 00:58 -38.11986 145.38209 18468 ft 384 kts 328°
2026-04-20 00:58 -38.09652 145.36614 17721 ft 378 kts 329°
2026-04-20 00:58 -38.07352 145.35043 16957 ft 373 kts 329°
2026-04-20 00:58 -38.05086 145.33498 16227 ft 367 kts 329°
2026-04-20 00:59 -38.02850 145.31976 15587 ft 361 kts 329°
2026-04-20 00:59 -38.00678 145.30492 15376 ft 352 kts 328°
2026-04-20 00:59 -37.98527 145.28991 15125 ft 354 kts 328°
2026-04-20 00:59 -37.96361 145.27467 14896 ft 364 kts 328°
2026-04-20 01:00 -37.94076 145.25857 14669 ft 387 kts 328°
2026-04-20 01:00 -37.91613 145.24126 13874 ft 422 kts 329°
2026-04-20 01:00 -37.89105 145.22375 13068 ft 411 kts 329°
2026-04-20 01:00 -37.86642 145.20662 12202 ft 400 kts 329°
2026-04-20 01:01 -37.84212 145.18971 11400 ft 397 kts 330°
2026-04-20 01:01 -37.81824 145.17361 11096 ft 381 kts 330°
2026-04-20 01:01 -37.79531 145.15843 10888 ft 364 kts 331°
2026-04-20 01:01 -37.77337 145.14390 10646 ft 349 kts 330°
2026-04-20 01:02 -37.75231 145.12992 10319 ft 332 kts 330°
2026-04-20 01:02 -37.73254 145.11678 10136 ft 310 kts 330°
2026-04-20 01:02 -37.71394 145.10476 10008 ft 290 kts 333°
2026-04-20 01:02 -37.69610 145.09422 9724 ft 279 kts 334°
2026-04-20 01:03 -37.67883 145.08425 9433 ft 275 kts 334°
2026-04-20 01:03 -37.66148 145.07422 9099 ft 274 kts 334°
2026-04-20 01:03 -37.64420 145.06417 8763 ft 273 kts 334°
2026-04-20 01:03 -37.62701 145.05414 8417 ft 272 kts 334°
2026-04-20 01:04 -37.60992 145.04414 8077 ft 270 kts 334°
2026-04-20 01:04 -37.59292 145.03418 7739 ft 269 kts 334°
2026-04-20 01:04 -37.57599 145.02427 7407 ft 267 kts 334°
2026-04-20 01:04 -37.55911 145.01438 7068 ft 267 kts 334°
2026-04-20 01:05 -37.54254 145.00455 6714 ft 267 kts 333°
2026-04-20 01:05 -37.52582 144.99442 6388 ft 266 kts 333°
2026-04-20 01:05 -37.50918 144.98431 6062 ft 265 kts 333°
2026-04-20 01:05 -37.49292 144.97445 5940 ft 255 kts 333°
2026-04-20 01:06 -37.47701 144.96480 5649 ft 253 kts 333°
2026-04-20 01:06 -37.46133 144.95503 5374 ft 251 kts 327°
2026-04-20 01:06 -37.44946 144.93957 5070 ft 247 kts 295°
2026-04-20 01:06 -37.44555 144.91925 4792 ft 242 kts 269°
2026-04-20 01:07 -37.44739 144.89864 4688 ft 232 kts 259°
2026-04-20 01:07 -37.45027 144.87939 4583 ft 215 kts 258°
2026-04-20 01:07 -37.45295 144.86153 4461 ft 200 kts 259°
2026-04-20 01:07 -37.45541 144.84500 4366 ft 185 kts 259°
2026-04-20 01:08 -37.45775 144.82882 4200 ft 192 kts 259°
2026-04-20 01:08 -37.46198 144.81299 4019 ft 193 kts 229°
2026-04-20 01:08 -37.47331 144.80523 3935 ft 192 kts 184°
2026-04-20 01:08 -37.48687 144.80584 3685 ft 198 kts 178°
2026-04-20 01:09 -37.50047 144.80685 3447 ft 194 kts 175°
2026-04-20 01:09 -37.51369 144.80883 3181 ft 187 kts 173°
2026-04-20 01:09 -37.52619 144.81109 2927 ft 181 kts 172°
2026-04-20 01:09 -37.53844 144.81340 2680 ft 175 kts 172°
2026-04-20 01:10 -37.55045 144.81566 2457 ft 175 kts 173°
2026-04-20 01:10 -37.57376 144.82003 2001 ft 162 kts 174°
2026-04-20 01:10 -37.58467 144.82206 1829 ft 155 kts 174°
2026-04-20 01:11 -37.59526 144.82405 1605 ft 153 kts 173°
2026-04-20 01:11 -37.60539 144.82596 1380 ft 142 kts 173°
2026-04-20 01:11 -37.61479 144.82770 1215 ft 134 kts 174°
2026-04-20 01:11 -37.62391 144.82936 1058 ft 135 kts 173°
2026-04-20 01:12 -37.63332 144.83120 880 ft 143 kts 169°
2026-04-20 01:12 -37.64346 144.83318 789 ft 140 kts 175°
2026-04-20 01:12 -37.65281 144.83489 511 ft 130 kts 173°
2026-04-20 01:12 -37.66124 144.83638 412 ft 109 kts 174°
2026-04-20 01:13 -37.66730 144.83755 390 ft 66 kts 170°
2026-04-20 01:13 -37.67009 144.83847 384 ft 25 kts 149°
2026-04-20 01:13 -37.67118 144.83942 381 ft 15 kts 142°
2026-04-20 01:13 -37.67165 144.83991 379 ft 6 kts 137°
2026-04-20 01:14 -37.67172 144.84000 379 ft 0 kts 135°
2026-04-20 01:14 -37.67173 144.84001 379 ft 0 kts 135°
2026-04-20 01:14 -37.67179 144.84008 379 ft 2 kts 134°
2026-04-20 01:14 -37.67192 144.84027 378 ft 5 kts 130°
2026-04-20 01:15 -37.67216 144.84077 378 ft 8 kts 112°
2026-04-20 01:15 -37.67220 144.84154 378 ft 10 kts 83°
2026-04-20 01:15 -37.67212 144.84246 380 ft 10 kts 84°
2026-04-20 01:15 -37.67206 144.84332 382 ft 9 kts 84°
2026-04-20 01:16 -37.67198 144.84405 383 ft 8 kts 78°
2026-04-20 01:16 -37.67175 144.84450 384 ft 5 kts 34°
2026-04-20 01:16 -37.67155 144.84458 384 ft 2 kts
2026-04-20 01:16 -37.67136 144.84457 385 ft 3 kts 353°
2026-04-20 01:17 -37.67120 144.84454 385 ft 2 kts 351°
2026-04-20 01:17 -37.67086 144.84447 386 ft 8 kts 350°
2026-04-20 01:17 -37.67024 144.84466 388 ft 10 kts 53°
2026-04-20 01:17 -37.67012 144.84556 389 ft 11 kts 84°
2026-04-20 01:18 -37.67002 144.84640 390 ft 6 kts 77°
2026-04-20 01:18 -37.67009 144.84660 391 ft 2 kts 139°
2026-04-20 01:18 -37.67031 144.84667 390 ft 4 kts 169°
2026-04-20 01:18 -37.67053 144.84672 390 ft 2 kts 171°
2026-04-20 01:19 -37.67062 144.84674 390 ft 0 kts 172°
2026-04-20 01:19 -37.67066 144.84675 390 ft 0 kts 171°